Tracking 33747 objects as of 12-Apr-2026
HD Live streaming from Space Station
objects crossing your sky now

STARLINK-36897

Track STARLINK-36897 now!
10-day predictions
STARLINK-36897 is classified as:


NORAD ID: 67951
Int'l Code: 2026-037V
Perigee: 488.6 km
Apogee: 491.7 km
Inclination: 43.0 °
Period: 94.3 minutes
Semi major axis: 6861 km
RCS: Unknown
Launch date: February 24, 2026
Source: United States (US)
Launch site: AIR FORCE EASTERN TEST RANGE (AFETR)
Your satellite tracking list
Your tracking list is empty




NASA's NSSDC Master Catalog

Two Line Element Set (TLE):
1 67951U 26037V   26101.42781426  .00013392  00000-0  49523-3 0  9994
2 67951  43.0023   6.1740 0002276 276.7667  83.2926 15.27583322  8341
Source of the keplerian elements: AFSPC